When you browse on this site, cookies collect data to enhance your experience and personalize the content and advertising you see.
Visit our Privacy Policy to learn more. By continuing to use the site, you agree to this use of cookies and data.
  • In Latvia
  • List of Countries
  • For 7 days
  • Water Temperature
  • Satellite Maps
  • Weather Map
  • Weather Widgets
  • user-avatar
    Login

    Hourly Weather Oksford

    Today, 17 December, Monday

    Time Temperature Precipitation Wind Pressure Humidity
    00:00 +3°C° 0 mm 5 mps 750 mmHg 91%
    01:00 +4°C° 0 mm 4 mps 751 mmHg 91%
    02:00 +4°C° 0 mm 4 mps 751 mmHg 91%
    03:00 +3°C° 0 mm 4 mps 752 mmHg 91%
    04:00 +3°C° 0 mm 3 mps 753 mmHg 92%
    05:00 +3°C° 0 mm 3 mps 754 mmHg 92%
    06:00 +3°C° 0 mm 3 mps 755 mmHg 92%
    07:00 +3°C° 0 mm 3 mps 755 mmHg 92%
    08:00 +3°C° 0 mm 3 mps 756 mmHg 92%
    09:00 +3°C° 0 mm 3 mps 756 mmHg 92%
    10:00 +4°C° 0 mm 3 mps 757 mmHg 89%
    11:00 +6°C° 0 mm 4 mps 757 mmHg 85%
    12:00 +7°C° 0 mm 4 mps 757 mmHg 81%
    13:00 +7°C° 0 mm 4 mps 757 mmHg 83%
    14:00 +7°C° 0 mm 4 mps 757 mmHg 85%
    15:00 +7°C° 0 mm 4 mps 757 mmHg 87%
    16:00 +7°C° 0 mm 4 mps 757 mmHg 88%
    17:00 +7°C° 0 mm 4 mps 757 mmHg 90%
    18:00 +7°C° 0 mm 5 mps 757 mmHg 92%
    19:00 +7°C° 0 mm 5 mps 757 mmHg 92%
    20:00 +7°C° 0 mm 5 mps 757 mmHg 92%
    21:00 +7°C° 0 mm 5 mps 757 mmHg 93%
    22:00 +7°C° 0 mm 6 mps 756 mmHg 92%
    23:00 +8°C° 0 mm 6 mps 756 mmHg 92%

    Tomorrow, 18 December, Tuesday

    Time Temperature Precipitation Wind Pressure Humidity
    00:00 +8°C° 0 mm 6 mps 756 mmHg 92%
    01:00 +8°C° 0 mm 6 mps 755 mmHg 91%
    02:00 +8°C° 0 mm 6 mps 755 mmHg 90%
    03:00 +8°C° 0 mm 7 mps 754 mmHg 90%
    04:00 +8°C° 0.1 mm 7 mps 754 mmHg 89%
    05:00 +9°C° 0.1 mm 7 mps 753 mmHg 88%
    06:00 +9°C° 0.1 mm 8 mps 753 mmHg 87%
    07:00 +7°C° 0 mm 8 mps 752 mmHg 85%
    08:00 +7°C° 0 mm 9 mps 751 mmHg 84%
    09:00 +7°C° 0 mm 9 mps 751 mmHg 83%
    10:00 +7°C° 0.1 mm 10 mps 750 mmHg 80%
    11:00 +7°C° 0.1 mm 10 mps 749 mmHg 77%
    12:00 +7°C° 0.1 mm 11 mps 748 mmHg 74%
    13:00 +7°C° 0.6 mm 10 mps 747 mmHg 77%
    14:00 +7°C° 0.6 mm 10 mps 747 mmHg 79%
    15:00 +7°C° 0.6 mm 9 mps 746 mmHg 81%
    16:00 +7°C° 1.3 mm 9 mps 746 mmHg 84%
    17:00 +7°C° 1.3 mm 9 mps 745 mmHg 87%
    18:00 +7°C° 1.3 mm 8 mps 745 mmHg 89%
    19:00 +6°C° 0.9 mm 7 mps 745 mmHg 90%
    20:00 +7°C° 0.9 mm 6 mps 745 mmHg 90%
    21:00 +7°C° 0.9 mm 4 mps 746 mmHg 91%
    22:00 +6°C° 0 mm 4 mps 746 mmHg 91%
    23:00 +6°C° 0 mm 4 mps 746 mmHg 92%

    Day after tomorrow, 19 December, Wednesday

    Time Temperature Precipitation Wind Pressure Humidity
    00:00 +5°C° 0 mm 4 mps 747 mmHg 92%
    01:00 +5°C° 0 mm 4 mps 747 mmHg 92%
    02:00 +5°C° 0 mm 3 mps 747 mmHg 92%
    03:00 +5°C° 0 mm 3 mps 748 mmHg 92%
    04:00 +5°C° 0.2 mm 3 mps 748 mmHg 93%
    05:00 +5°C° 0.2 mm 3 mps 748 mmHg 93%
    06:00 +5°C° 0.2 mm 3 mps 748 mmHg 94%
    07:00 +5°C° 0.1 mm 3 mps 749 mmHg 93%
    08:00 +5°C° 0.1 mm 3 mps 749 mmHg 93%
    09:00 +6°C° 0.1 mm 2 mps 749 mmHg 93%
    10:00 +5°C° 0 mm 3 mps 749 mmHg 88%
    11:00 +6°C° 0 mm 4 mps 750 mmHg 84%
    12:00 +7°C° 0 mm 4 mps 750 mmHg 79%
    13:00 +7°C° 0 mm 4 mps 750 mmHg 80%
    14:00 +7°C° 0 mm 4 mps 750 mmHg 81%
    15:00 +6°C° 0 mm 4 mps 750 mmHg 82%
    16:00 +6°C° 0 mm 4 mps 750 mmHg 84%
    17:00 +5°C° 0 mm 4 mps 750 mmHg 86%
    18:00 +5°C° 0 mm 4 mps 750 mmHg 88%
    19:00 +5°C° 0 mm 4 mps 751 mmHg 87%
    20:00 +5°C° 0 mm 4 mps 751 mmHg 87%
    21:00 +5°C° 0 mm 4 mps 751 mmHg 87%
    22:00 +3°C° 0 mm 5 mps 751 mmHg 87%
    23:00 +3°C° 0 mm 5 mps 751 mmHg 87%

    20 December, Thursday

    Time Temperature Precipitation Wind Pressure Humidity
    00:00 +3°C° 0 mm 5 mps 751 mmHg 87%
    01:00 +3°C° 0 mm 5 mps 751 mmHg 87%
    02:00 +3°C° 0 mm 5 mps 751 mmHg 88%
    03:00 +3°C° 0 mm 5 mps 751 mmHg 88%
    04:00 +5°C° 0.1 mm 5 mps 751 mmHg 87%
    05:00 +5°C° 0.1 mm 5 mps 750 mmHg 87%
    06:00 +4°C° 0.1 mm 6 mps 750 mmHg 86%
    07:00 +4°C° 0.2 mm 6 mps 750 mmHg 86%
    08:00 +4°C° 0.2 mm 6 mps 751 mmHg 86%
    09:00 +5°C° 0.2 mm 6 mps 751 mmHg 86%
    10:00 +5°C° 0.2 mm 6 mps 751 mmHg 84%
    11:00 +7°C° 0.2 mm 6 mps 751 mmHg 82%
    12:00 +6°C° 0.2 mm 7 mps 751 mmHg 80%
    13:00 +7°C° 0.2 mm 6 mps 751 mmHg 80%
    14:00 +7°C° 0.2 mm 6 mps 752 mmHg 80%
    15:00 +7°C° 0.2 mm 5 mps 752 mmHg 81%
    16:00 +6°C° 0 mm 5 mps 752 mmHg 83%
    17:00 +6°C° 0 mm 4 mps 752 mmHg 86%
    18:00 +5°C° 0 mm 4 mps 753 mmHg 88%
    19:00 +5°C° 0 mm 4 mps 753 mmHg 89%
    20:00 +4°C° 0 mm 3 mps 753 mmHg 90%
    21:00 +4°C° 0 mm 3 mps 752 mmHg 91%
    22:00 +5°C° 0.2 mm 3 mps 752 mmHg 92%
    23:00 +5°C° 0.2 mm 3 mps 751 mmHg 93%

    21 December, Friday

    Time Temperature Precipitation Wind Pressure Humidity
    00:00 +5°C° 0.2 mm 3 mps 751 mmHg 93%
    01:00 +7°C° 0.6 mm 4 mps 750 mmHg 94%
    02:00 +8°C° 0.6 mm 5 mps 749 mmHg 95%
    03:00 +9°C° 0.6 mm 6 mps 748 mmHg 95%
    04:00 +9°C° 0.4 mm 7 mps 746 mmHg 94%
    05:00 +10°C° 0.4 mm 8 mps 745 mmHg 92%
    06:00 +11°C° 0.4 mm 8 mps 744 mmHg 91%
    07:00 +11°C° 0.6 mm 8 mps 744 mmHg 90%
    08:00 +11°C° 0.6 mm 9 mps 744 mmHg 89%
    09:00 +11°C° 0.6 mm 9 mps 744 mmHg 88%
    10:00 +10°C° 0 mm 9 mps 745 mmHg 83%
    11:00 +10°C° 0 mm 9 mps 746 mmHg 78%
    12:00 +8°C° 0 mm 9 mps 747 mmHg 73%
    13:00 +8°C° 0 mm 9 mps 748 mmHg 74%
    14:00 +8°C° 0 mm 9 mps 749 mmHg 75%
    15:00 +9°C° 0 mm 8 mps 749 mmHg 75%
    16:00 +9°C° 0 mm 8 mps 749 mmHg 78%
    17:00 +7°C° 0 mm 8 mps 750 mmHg 80%
    18:00 +7°C° 0 mm 8 mps 750 mmHg 82%
    19:00 +7°C° 0 mm 8 mps 750 mmHg 83%
    20:00 +8°C° 0 mm 9 mps 751 mmHg 83%
    21:00 +8°C° 0 mm 9 mps 751 mmHg 83%
    22:00 +8°C° 0 mm 9 mps 751 mmHg 83%
    23:00 +9°C° 0 mm 8 mps 752 mmHg 83%

    22 December, Saturday

    Time Temperature Precipitation Wind Pressure Humidity
    00:00 +9°C° 0 mm 8 mps 752 mmHg 83%
    01:00 +9°C° 0 mm 7 mps 752 mmHg 84%
    02:00 +8°C° 0 mm 6 mps 753 mmHg 85%
    03:00 +8°C° 0 mm 6 mps 753 mmHg 87%
    04:00 +7°C° 0 mm 5 mps 754 mmHg 89%
    05:00 +7°C° 0 mm 4 mps 754 mmHg 91%
    06:00 +7°C° 0 mm 3 mps 754 mmHg 93%
    07:00 +8°C° 0.2 mm 3 mps 755 mmHg 94%
    08:00 +8°C° 0.2 mm 3 mps 755 mmHg 95%
    09:00 +8°C° 0.2 mm 2 mps 755 mmHg 96%
    10:00 +9°C° 0.8 mm 3 mps 755 mmHg 95%
    11:00 +9°C° 0.8 mm 3 mps 756 mmHg 94%
    12:00 +10°C° 0.8 mm 3 mps 756 mmHg 94%
    13:00 +10°C° 0 mm 4 mps 756 mmHg 92%
    14:00 +10°C° 0 mm 4 mps 756 mmHg 90%
    15:00 +10°C° 0 mm 4 mps 756 mmHg 88%
    16:00 +9°C° 0 mm 3 mps 757 mmHg 89%
    17:00 +9°C° 0 mm 3 mps 757 mmHg 91%
    18:00 +8°C° 0 mm 3 mps 758 mmHg 93%
    19:00 +7°C° 0 mm 3 mps 758 mmHg 93%
    20:00 +7°C° 0 mm 2 mps 758 mmHg 92%
    21:00 +7°C° 0 mm 2 mps 758 mmHg 92%
    22:00 +7°C° 0 mm 2 mps 758 mmHg 93%
    23:00 +7°C° 0 mm 3 mps 758 mmHg 93%
    Show more